Location: Asheville, NC
(35.6000°N, 82.5500°W)
Time: 10:38:24

Envisat - Pass Details

Date: 14 March 2018
Orbit: 764 x 766 km, 98.2° (Epoch: 19 March)

Event Time Altitude Azimuth Distance (km) Brightness Sun altitude
Rises 21:51:36 0° 195° (SSW) 3,212 6.2 -27.8°
Reaches altitude 10° 21:54:14 10° 208° (SSW) 2,290 5.5 -28.3°
Maximum altitude 21:58:26 26° 264° (W) 1,462 5.0 -29.1°
Drops below altitude 10° 22:02:40 10° 321° (NW) 2,302 6.2 -29.9°
Sets 22:05:20 0° 334° (NNW) 3,233 6.9 -30.4°
